Aérodrome :
LOGIN :

S'inscrire | Disclaimer

   EN    FR    IT 

 










Légende :    VFR   VFR Marginal   IFR   IFR Intensif   IFR Très Intensif
Visi : 
Plafond : 
>= 8 km
>= 3000ft
5 à 8 km
1000 à 3000 ft
1500m à 5 km
500 à 1000 ft
800 à 1500m
200 à 500 ft
< 800m
< 200 ft
Symboles :   Orages  Brouillard  Fortes neiges  Fortes précipitations  Vent > 20 kt
SIGMETs :   Divers  Orages  Givrage  Turbulence  Onde Orograph.  Cendres Volcan.






- Altitude de l'aérodrome : 158 ft
- Code IATA : QAR


EHDL - Deelen Airbase

DERNIER METAR :
  • 230255Z AUTO 36001KT 9999 NCD M03/M04 Q1028 BLU

METARs EXPIRÉS :
  • 230225Z AUTO 00000KT 9999 SCT350 M03/M03 Q1028 BLU
  • 230155Z AUTO VRB01KT 9999 NCD M02/M04 Q1028 BLU
  • 230125Z AUTO 14001KT 9999 FEW020 M02/M03 Q1028 BLU
  • 230055Z AUTO 00000KT 9999 NCD M01/M02 Q1028 BLU
  • 230025Z AUTO 22001KT 9999 BKN360 M01/M02 Q1028 BLU

Prévision TAF périmée.



MET'MAP, la Météo Aéronautique d'un coup d'oeil ! - Copyright ORBIFLY Décembre 2007 - Disclaimer

ORBIFLY MET'MAP TEAM :

Programmation & Développement : Alexandra Zaïnal
Sur une idée originale de : Baudouin d'Aumeries
Assistance à la programmation : Marc-Olivier Méhu
Soutien technique & logistique : Manuel Goepfert

Contact : metmap@orbifly.com




SOURCES & CREDITS :

   NOAA